Location: Sortland
(68.7020°N, 15.4240°E)
Time: 04:05:10
(UTC+02:00)

Envisat - Visible Passes

Search period start: 21 October 2019 00:00
Search period end: 30 October 2019 23:00
Orbit: 764 x 766 km, 98.1° (Epoch: 20 October)

Date Brightness Start Highest point End Pass type
(mag) Time Alt. Az. Time Alt. Az. Time Alt. Az.
21 Oct 6.2 05:53:02 10° NE 05:55:27 13° ENE 05:57:53 10° E visible
21 Oct 4.0 19:00:26 10° S 19:05:25 52° WSW 19:10:25 10° NNW visible
21 Oct 5.8 20:42:08 10° WSW 20:45:38 18° WNW 20:49:09 10° NW visible
22 Oct 5.6 06:54:35 10° NNE 06:58:49 25° E 07:03:02 10° SE visible
22 Oct 3.3 18:23:21 10° SSE 18:28:28 76° WSW 18:33:36 10° NNW visible
22 Oct 5.2 20:04:00 10° SW 20:08:18 27° W 20:12:37 10° NNW visible
23 Oct 6.0 06:18:05 10° NE 06:21:27 17° ENE 06:24:50 10° ESE visible
23 Oct 3.0 17:46:33 10° SE 17:51:39 76° ENE 17:56:46 10° NNW visible
23 Oct 4.5 19:26:21 10° SSW 19:31:07 39° W 19:35:55 10° NNW visible
23 Oct 6.1 21:08:59 10° WSW 21:11:37 14° WNW 21:14:15 10° NW visible
24 Oct 6.3 05:42:09 10° NE 05:43:58 12° ENE 05:45:46 10° E visible
24 Oct 5.1 07:20:01 10° NNE 07:24:38 33° E 07:29:14 10° SSE visible
24 Oct 3.7 18:49:03 10° S 18:54:05 58° WSW 18:59:08 10° NNW visible
24 Oct 5.6 20:30:24 10° SW 20:34:11 21° W 20:37:59 10° NNW visible
25 Oct 5.7 06:43:22 10° NNE 06:47:23 23° E 06:51:24 10° SE visible
25 Oct 3.1 18:12:03 10° SSE 18:17:11 84° WSW 18:22:19 10° NNW visible
25 Oct 5.0 19:52:26 10° SSW 19:56:54 30° W 20:01:23 10° NNW visible
25 Oct 6.3 21:36:48 10° WNW 21:37:41 10° WNW 21:38:35 10° NW visible
26 Oct 6.1 06:06:57 10° NE 06:10:00 16° ENE 06:13:01 10° ESE visible
26 Oct 3.0 17:35:20 10° SE 17:40:23 69° ENE 17:45:28 10° NNW visible
26 Oct 4.3 19:14:53 10° S 19:19:45 44° W 19:24:39 10° NNW visible
26 Oct 6.0 20:57:05 10° WSW 21:00:08 16° WNW 21:03:12 10° NW visible
27 Oct 6.5 04:31:39 10° NE 04:32:26 10° ENE 04:33:14 10° ENE visible
27 Oct 5.2 06:08:46 10° NNE 06:13:15 30° E 06:17:42 10° SSE visible
27 Oct 3.5 17:37:41 10° S 17:42:46 65° WSW 17:47:51 10° NNW visible
27 Oct 5.5 19:18:43 10° SW 19:22:45 23° W 19:26:47 10° NNW visible
28 Oct 5.9 05:32:10 10° NNE 05:35:57 20° E 05:39:43 10° SE visible
28 Oct 3.0 17:00:47 10° SSE 17:05:53 87° ENE 17:11:01 10° NNW visible
28 Oct 4.8 18:40:54 10° SSW 18:45:30 33° W 18:50:08 10° NNW visible
28 Oct 6.2 20:24:19 10° W 20:26:10 12° WNW 20:28:02 10° NW visible
29 Oct 6.2 04:55:54 10° NE 04:58:31 14° ENE 05:01:07 10° ESE visible
29 Oct 4.7 06:34:14 10° NNE 06:39:01 39° E 06:43:47 10° SSE visible
29 Oct 3.0 16:24:07 10° SE 16:29:09 62° ENE 16:34:12 10° NNW visible
29 Oct 4.0 18:03:28 10° S 18:08:25 49° W 18:13:23 10° NNW visible
29 Oct 5.8 19:45:17 10° WSW 19:48:40 18° WNW 19:52:04 10° NW visible
30 Oct 5.4 05:57:31 10° NNE 06:01:50 27° E 06:06:07 10° SE visible
30 Oct 3.3 17:26:21 10° SSE 17:31:27 73° WSW 17:36:35 10° NNW visible
30 Oct 5.3 19:07:06 10° SW 19:11:19 26° W 19:15:34 10° NNW visible
